Location: *
(50.2903°S, 172.5375°W)
Time: 05:28:46
(UTC+00:00)

ERS-2 - Pass Details

Date: 17 November 2019
Orbit: 494 x 500 km, 98.5° (Epoch: 14 December)

Event Time Altitude Azimuth Distance (km) Brightness Sun altitude
Rises 14:43:59 0° 176° (S) 2,641 6.6 -6.9°
Reaches altitude 10° 14:46:23 10° 190° (S) 1,748 5.3 -6.6°
Maximum altitude 14:49:23 23° 243° (WSW) 1,133 3.7 -6.2°
Drops below altitude 10° 14:52:20 10° 296° (WNW) 1,731 4.2 -5.8°
Enters shadow 14:53:00 - 301° (WNW) 1,959 4.5 -5.8°
